Regional Weather Roundup
Issued by NWS Cleveland, OH

Home | Current Version | Previous Version | Graphics & Text | Print | Product List | Glossary On
Versions: 1 2 3 4 5 6 7 8 9 10 11 12 13 14 15 16 17 18 19 20 21 22 23 24 25 26 27 28 29 30 31 32 33 34 35 36 37 38 39 40 41 42 43 44 45 46 47 48 49 50
000
ASUS41 KCLE 300202
RWRCLE
OHIO REGIONAL WEATHER ROUNDUP
NATIONAL WEATHER SERVICE CLEVELAND, OH
1000 PM EDT MON AUG 29 2016

NOTE: "FAIR" INDICATES FEW OR NO CLOUDS BELOW 12,000 FEET WITH NO
SIGNIFICANT WEATHER AND/OR OBSTRUCTIONS TO VISIBILITY.

OHZ001>008-015>018-024>027-034-035-043-044-300300-
   NORTHWEST OHIO

CITY           SKY/WX    TMP DP  RH WIND       PRES   REMARKS
DEFIANCE       CLEAR     74  67  78 E6        30.21R
FINDLAY        CLEAR     73  62  68 E8        30.21R
TOLEDO EXPRESS CLEAR     67  65  93 E3        30.21S
TOLEDO EXEC    CLEAR     70  67  90 E3        30.23R
LIMA           CLEAR     71  68  90 E6        30.22R
$$

OHZ009>014-019>023-028>033-038-089-300300-
   NORTHEAST OHIO

CITY           SKY/WX    TMP DP  RH WIND       PRES   REMARKS
CLE-HOPKINS    PTCLDY    73  56  54 NE7       30.24R
CLE-LAKEFRONT  CLEAR     74  58  57 E5        30.22R
CUY CO. ARPT   CLEAR     66  61  82 E6        30.24R
LORAIN-ELYRIA  CLEAR     65  60  84 CALM      30.24R
ASHTABULA      CLEAR     61  61 100 CALM      30.25R
AKRON-CANTON   CLEAR     71  60  68 NE8       30.23R
WOOSTER        CLEAR     66  60  81 N5        30.24R
MANSFIELD      CLEAR     69  62  78 N7        30.25R
YOUNGSTOWN     CLEAR     67  56  67 NE3       30.24R
$$

OHZ042-051>053-060>062-070>072-077>081-300300-
  SOUTHWEST OHIO

CITY           SKY/WX    TMP DP  RH WIND       PRES   REMARKS
CINC-COVINGTON CLEAR     83  71  67 NE8       30.17S
CINC-LUNKEN    CLEAR     75  74  96 CALM      30.17R
HAMILTON       CLEAR     73  71  93 CALM      30.18R
DAYTON         CLEAR     74  69  85 NE7       30.21R
WRIGHT-PAT AFB CLEAR     74  69  85 NE6       30.19R
DAYTON GENERAL CLEAR     77  68  73 E5        30.19R
WILMINGTON     CLEAR     73  70  90 NE6       30.19S
$$

OHZ036-037-039>041-045>050-054>059-063>069-073>076-082>088-300300-
  CENTRAL AND SOUTHEAST OHIO

CITY           SKY/WX    TMP DP  RH WIND       PRES   REMARKS
COLUMBUS       CLEAR     76  67  73 NE7       30.19R
OSU AIRPORT    CLEAR     74  67  78 N7        30.20R
BOLTON FIELD   CLEAR     74  68  81 N6        30.20S
RICKENBACK AFB CLEAR     75  68  79 E5        30.18S
NEWARK         CLEAR     71  69  93 CALM      30.20R
MARION         CLEAR     70  64  81 NE7       30.23R
LANCASTER      CLEAR     71  69  93 CALM      30.20R
ZANESVILLE     CLEAR     72  65  78 N5        30.20R
NEW PHILLY     CLEAR     70  60  70 CALM      30.22R
$$




USA.gov is the U.S. government's official web portal to all federal, state and local government web resources and services.